STARLINK-1815 (46713 NORAD) Tracking and Keplerian Element Data

This shows tracking and keplerian element data for the satellite.

Feedback or suggestion? Click here.




ElementValue
Catalog46713
NameSTARLINK-1815
Epoch Orbit181
Epoch Day336.91667824
Epoch Year2020
RAAN251.0075
Inclination53.0555
Eccentricity0.0001569
Argument of Perigee52.3263
Mean Anonmoly24.68
Mean Motion15.62763238
Decay Rate-2.138E-05
L11 46713U 20073AV 20336.91667824 -.00002138 00000-0 -17513-4 0 9997
L22 46713 53.0555 251.0075 0001569 52.3263 24.6800 15.62763238 1811

Live tracking and technical data element details for STARLINK-1815 (NORAD 46713). STARLINK-1815 can be tracked NOW for your location showing map with azimuth and elevation plus other details from your city location.

Track the satellite on the map from your city or location and see movement details for azimuth, elevation, latitude, longitude, range, height, and movement on the map or in text.







IsCatalogInMostPopularTable: catalog: 46713, numindb: 8
Update: records affected: 1



GetName: 46713 STARLINK-1815

Hit Count: updated at: Wed, 02 Dec 2020 18:55:38 GMT